Findlay, OH

2:04 PM EDT on August 22, 2017 (GMT -0400)
Findlay

Weather History for KFDY - May, 2014

Change the Weather History Date:

Saturday, May 31, 2014

  Actual Average Record
Temperature  
Mean Temperature 68 °F -  
Max Temperature 84 °F 74 °F 94 °F (1988)
Min Temperature 55 °F 55 °F 40 °F (1966)
Cooling Degree Days 4    
Growing Degree Days 18 (Base 50)    
Moisture  
Dew Point 50 °F    
Average Humidity 52    
Maximum Humidity 81    
Minimum Humidity 34    
Precipitation  
Precipitation 0.00 in - - ()
Sea Level Pressure  
Sea Level Pressure 30.16 in    
Wind  
Wind Speed 5 mph (ENE)    
Max Wind Speed 14 mph    
Max Gust Speed -    
Visibility 10 miles    
Events      
Averages and records for this station are not official NWS values.
T = Trace of Precipitation, MM = Missing Value Source: NWS Daily Summary

Daily Weather History Graph

Daily Weather History Graph

Search for Another Location

Airport or City:

Trip Planner

Search our weather history database for the weather conditions in past years. The results will help you decide how hot, cold, wet, or windy it might be!

Date:

Astronomy

May. 31, 2014 Rise Set
Actual Time 6:05 AM EDT 8:59 PM EDT
Civil Twilight 5:32 AM EDT 9:32 PM EDT
Nautical Twilight 4:51 AM EDT 10:14 PM EDT
Astronomical Twilight 4:03 AM EDT 11:02 PM EDT
Moon 8:42 AM EDT (5/31) 11:16 PM EDT (5/31)
Length of Visible Light 16h 00m
Length of Day
14h 54m
Waxing Crescent, 8% of the Moon is Illuminated
May 31
Waxing Crescent
Jun 5
First Quarter
Jun 13
Full
Jun 19
Last Quarter
Jun 27
New

Hourly Weather History & Observations

Time (EDT) Temp. Heat Index Dew Point Humidity Pressure Visibility Wind Dir Wind Speed Gust Speed Precip Events Conditions
12:53 AM 63.0 °F - 48.9 °F 60% 30.15 in 10.0 mi ESE 4.6 mph - N/A   Clear
1:53 AM 61.0 °F - 48.9 °F 64% 30.16 in 10.0 mi Calm Calm - N/A   Clear
2:53 AM 61.0 °F - 50.0 °F 67% 30.16 in 10.0 mi Calm Calm - N/A   Clear
3:53 AM 60.1 °F - 50.0 °F 69% 30.17 in 10.0 mi East 3.5 mph - N/A   Clear
4:53 AM 55.9 °F - 50.0 °F 80% 30.17 in 10.0 mi Calm Calm - N/A   Clear
5:53 AM 57.0 °F - 51.1 °F 81% 30.18 in 10.0 mi Calm Calm - N/A   Clear
6:53 AM 59.0 °F - 52.0 °F 78% 30.20 in 10.0 mi NE 3.5 mph - N/A   Clear
7:53 AM 64.0 °F - 52.0 °F 65% 30.21 in 10.0 mi NE 6.9 mph - N/A   Clear
8:53 AM 69.1 °F - 52.0 °F 54% 30.22 in 10.0 mi East 6.9 mph - N/A   Clear
9:53 AM 72.0 °F - 50.0 °F 46% 30.21 in 10.0 mi ESE 6.9 mph - N/A   Clear
11:53 AM 79.0 °F - 52.0 °F 39% 30.19 in 10.0 mi NE 5.8 mph - N/A   Clear
12:53 PM 79.0 °F - 51.1 °F 38% 30.18 in 10.0 mi West 3.5 mph - N/A   Clear
1:53 PM 81.0 °F - 52.0 °F 36% 30.17 in 10.0 mi Calm Calm - N/A   Clear
2:53 PM 82.0 °F - 52.0 °F 35% 30.15 in 10.0 mi Variable 5.8 mph - N/A   Clear
3:53 PM 82.9 °F - 52.0 °F 34% 30.14 in 10.0 mi NNE 8.1 mph - N/A   Partly Cloudy
4:53 PM 82.9 °F 81.9 °F 54.0 °F 37% 30.13 in 10.0 mi NE 11.5 mph - N/A   Scattered Clouds
5:53 PM 81.0 °F 80.4 °F 53.1 °F 38% 30.13 in 10.0 mi NE 12.7 mph - N/A   Clear
6:53 PM 79.0 °F - 50.0 °F 36% 30.12 in 10.0 mi NE 13.8 mph - N/A   Clear
7:53 PM 75.9 °F - 48.9 °F 38% 30.12 in 10.0 mi NE 12.7 mph - N/A   Clear
8:53 PM 71.1 °F - 48.9 °F 45% 30.13 in 10.0 mi ENE 11.5 mph - N/A   Clear
9:53 PM 66.9 °F - 48.0 °F 51% 30.14 in 10.0 mi ENE 9.2 mph - N/A   Clear
10:53 PM 64.9 °F - 45.0 °F 48% 30.15 in 10.0 mi ENE 9.2 mph - N/A   Clear
11:53 PM 63.0 °F - 45.0 °F 52% 30.15 in 10.0 mi East 6.9 mph - N/A   Clear